Wind_Speed
36 37 38 40 40 41 41 41 40 40 40 40 40 41 42 42 43 43 43 44 44 43 43 42 43 43 44 44 44 44 45 45 45 45 44 44 44 44 44 44 44 43 43
35 36 36 38 39 40 41 41 41 41 41 41 41 42 42 42 43 43 43 43 44 44 43 43 43 43 44 44 44 45 45 45 46 46 45 45 45 45 45 44 44 43 43
34 35 35 36 38 39 39 40 41 41 41 41 41 42 42 42 42 42 43 43 43 44 43 43 44 44 44 44 44 45 45 45 45 45 46 45 44 44 44 45 45 44 43
33 34 35 36 37 38 39 39 40 41 41 42 41 42 42 42 42 42 42 43 43 44 43 43 44 44 44 44 44 44 44 44 44 45 45 45 45 44 43 43 44 44 43
32 33 34 35 36 36 37 38 39 39 40 41 40 40 40 40 40 41 41 42 42 42 42 43 42 43 43 44 44 45 45 45 45 45 45 44 44 44 44 42 42 42 43
29 31 33 34 35 36 36 37 38 38 39 39 39 39 39 39 39 40 40 41 41 41 41 42 43 43 44 44 44 45 45 44 44 43 43 44 43 43 43 42 41 41 42
28 30 31 33 34 36 36 37 37 37 37 37 37 37 38 38 38 38 39 39 39 40 40 41 42 42 43 43 43 42 42 43 42 41 41 42 42 42 42 42 41 42 42
28 30 32 32 33 35 35 35 35 35 36 36 35 36 36 37 37 37 37 38 39 40 41 40 41 41 41 40 41 41 41 40 40 40 40 40 41 40 40 41 41 42 42
26 28 30 30 31 32 33 34 34 34 34 35 35 35 36 36 37 37 38 38 38 39 39 39 39 39 40 40 39 39 39 38 38 39 40 40 41 41 41 42 41 41 42
26 26 27 28 29 30 31 32 32 33 33 34 35 35 35 35 36 37 38 37 37 37 37 38 38 38 38 38 38 37 37 37 38 39 40 40 40 41 41 42 41 41 41
26 26 27 28 29 29 29 30 31 32 32 33 34 35 35 34 35 37 36 36 36 36 36 36 37 37 37 37 37 36 36 36 37 37 38 39 39 40 40 40 40 40 39
26 26 26 27 27 28 28 29 30 30 31 32 33 33 34 34 34 35 36 36 36 35 36 35 36 36 36 36 36 35 35 35 36 36 36 37 38 39 38 38 38 38 38
25 26 26 26 26 27 27 28 28 29 29 31 32 32 33 33 34 34 35 35 36 36 36 35 35 34 34 34 34 34 34 35 35 36 36 35 35 35 36 37 37 37 37
26 26 26 26 26 26 27 28 28 29 29 29 30 31 33 33 33 33 34 35 35 36 36 36 35 34 34 34 33 33 34 34 34 34 34 34 33 33 34 34 34 35 35
27 26 26 26 26 26 27 27 28 29 29 30 30 30 32 33 33 33 34 35 35 35 35 35 34 34 34 33 33 33 33 32 32 33 32 32 32 32 32 32 32 33 33
28 26 25 25 25 25 26 26 28 29 30 30 30 30 30 31 32 32 32 33 34 34 34 34 34 34 33 33 33 32 32 32 31 31 31 31 30 31 31 31 31 31 31
27 26 26 25 25 25 26 26 28 29 30 30 30 30 30 31 31 31 32 32 33 33 34 34 34 34 33 33 32 32 31 31 31 31 31 30 29 30 30 30 30 30 30
27 27 26 26 26 26 27 28 28 29 29 29 30 31 31 31 31 31 31 32 32 32 33 33 34 34 33 33 32 32 32 32 32 32 31 30 29 29 29 30 30 30 31
26 26 27 27 27 27 27 28 28 29 30 30 31 31 31 30 30 31 32 32 32 32 32 32 32 31 32 33 33 32 32 32 31 31 30 30 30 30 30 31 31 31 31
25 26 27 28 28 28 29 29 29 29 29 30 30 30 30 30 30 31 31 32 32 32 32 31 31 31 31 31 32 32 31 30 30 30 30 30 30 30 30 30 30 30 30
27 27 28 29 29 29 30 30 30 29 29 29 30 30 30 30 30 30 30 31 31 31 31 30 30 30 30 30 30 30 30 30 30 30 30 30 29 29 28 28 29 29 29
28 29 30 29 30 31 30 30 29 29 28 28 29 29 29 29 29 30 30 30 31 30 30 29 29 29 29 28 29 29 29 29 28 28 29 28 28 28 28 28 27 27 27
30 31 31 31 31 30 30 29 29 29 29 28 28 28 28 28 28 29 29 29 29 28 28 27 27 28 28 28 28 28 28 28 27 27 27 27 26 26 26 26 26 26 25
30 31 31 30 30 29 28 28 28 28 28 28 28 28 28 28 28 28 28 28 28 27 27 26 26 26 27 28 28 28 28 28 27 27 26 26 26 25 24 25 25 25 25
29 30 30 30 29 28 28 27 27 27 27 27 27 28 28 27 27 28 27 26 26 26 26 25 25 25 26 26 27 27 27 26 26 26 26 26 26 25 24 24 24 24 23
28 28 27 28 28 28 28 27 27 27 26 26 26 26 25 24 25 26 26 25 24 24 24 23 23 23 24 25 26 26 26 25 25 25 25 25 25 24 24 23 23 23 22
Wind_Direction
261 261 262 261 260 260 260 260 260 260 261 261 261 261 262 263 264 265 265 265 266 266 267 267 267 268 268 269 269 270 270 270 270 270 271 272 272 272 272 272 272 273 273
262 262 263 261 260 260 259 259 260 261 262 262 262 262 263 264 265 265 266 266 266 267 267 268 268 268 268 269 269 270 270 270 271 271 271 271 271 272 271 271 271 271 271
263 263 263 263 262 262 261 260 260 262 262 263 263 263 263 264 265 265 266 266 266 267 268 268 268 268 268 268 269 270 271 270 271 271 272 272 272 271 271 271 270 270 270
265 264 263 263 263 263 263 262 261 262 262 263 264 263 263 264 264 265 266 267 266 266 267 268 269 269 269 269 269 270 270 269 269 271 272 272 272 272 270 270 269 269 270
267 266 265 264 264 264 264 264 263 263 263 264 264 264 264 265 265 265 266 266 267 267 267 267 268 269 269 270 270 270 270 270 270 270 270 271 271 272 271 269 269 270 269
271 269 267 267 267 266 266 265 264 264 264 265 265 265 265 265 265 265 265 266 266 267 267 268 268 269 270 272 272 272 270 269 269 270 270 270 271 271 270 269 269 270 270
274 273 272 270 269 269 267 266 265 264 264 264 265 265 265 265 264 264 265 265 266 266 267 268 269 271 271 271 273 272 271 269 269 270 270 271 271 271 271 270 270 270 271
279 277 275 273 271 270 269 267 266 264 264 264 265 265 265 265 265 265 266 266 267 267 267 267 269 271 271 272 272 272 271 270 270 269 270 271 271 271 271 270 270 271 272
284 282 279 275 273 271 269 268 267 266 265 264 264 265 265 265 265 266 267 266 266 268 268 269 270 271 272 272 272 272 271 271 270 270 270 271 271 271 271 271 272 273 273
288 286 281 278 276 274 272 270 269 267 266 266 266 266 266 265 265 267 267 267 267 268 268 270 271 273 273 272 272 271 271 271 271 271 271 271 271 272 271 271 272 273 274
290 288 284 282 279 276 274 273 271 269 269 268 268 268 267 267 267 266 267 267 267 268 269 271 272 272 272 271 271 271 270 271 272 272 272 271 272 272 272 273 273 273 274
290 289 286 283 280 277 275 275 275 273 271 269 268 268 267 267 269 268 268 267 267 267 269 271 272 271 271 271 271 270 270 271 272 272 273 273 273 273 273 273 273 272 273
288 288 288 283 279 277 275 275 276 275 273 271 269 269 268 268 270 270 269 269 269 269 269 270 270 270 271 272 273 271 271 272 272 273 274 274 274 274 273 272 271 271 273
288 287 287 284 280 277 275 276 277 276 274 274 273 271 269 270 271 271 270 270 270 270 270 270 270 270 271 272 273 272 272 273 273 273 273 273 274 274 273 271 270 272 274
287 287 287 285 281 279 279 278 279 279 278 276 274 273 272 272 272 274 272 270 270 270 271 271 271 271 272 273 272 273 273 273 274 274 273 273 273 272 271 271 272 273 274
287 287 286 286 283 281 281 280 280 280 279 278 276 275 273 272 273 275 275 273 272 271 270 270 270 271 271 271 272 272 273 272 273 273 273 273 272 271 271 272 272 273 275
286 286 286 286 285 283 282 282 282 282 281 279 277 276 275 273 274 275 276 275 274 272 270 270 271 271 270 269 270 270 271 271 271 271 272 272 271 272 271 270 272 274 277
285 285 286 286 288 286 284 284 285 283 281 280 279 279 278 275 275 276 277 276 274 272 272 271 271 269 268 268 268 268 270 270 270 270 271 270 270 271 272 272 273 275 277
286 287 288 289 290 288 286 285 285 284 281 280 280 280 279 278 278 277 278 277 275 273 273 272 270 269 268 267 267 268 269 269 269 269 268 269 270 271 274 274 273 275 278
287 289 291 292 290 289 287 286 284 284 283 281 280 281 281 279 280 279 279 278 276 274 274 271 269 268 267 266 266 266 266 267 268 268 269 270 272 273 275 275 274 276 279
287 289 292 292 291 289 287 285 284 285 284 282 281 282 282 280 281 280 280 279 277 276 273 271 269 267 266 265 264 264 265 266 268 269 270 271 273 272 273 274 275 276 278
286 288 290 291 292 291 289 286 285 284 284 283 282 282 282 281 280 280 280 279 279 276 272 270 269 266 264 263 262 264 266 266 267 268 269 270 272 273 273 275 275 277 279
288 290 290 291 292 291 289 287 286 285 284 284 283 283 282 280 281 280 279 279 278 276 273 271 270 266 263 261 260 262 265 266 268 268 267 268 270 270 271 273 275 277 279
290 291 291 291 291 290 289 288 287 287 285 284 283 282 281 280 281 281 281 281 279 276 273 272 271 267 263 261 260 261 263 265 267 266 265 267 268 269 272 275 276 277 279
291 293 292 291 291 290 289 288 287 286 286 285 284 283 281 280 281 281 283 282 281 277 274 272 271 268 266 264 261 261 265 266 265 264 265 266 267 270 273 276 277 278 279
292 294 294 293 292 290 289 287 287 286 286 285 286 285 283 282 283 284 282 282 281 279 276 275 273 270 268 264 262 263 265 264 263 263 263 264 266 269 271 273 274 276 278
Height
5689 5690 5691 5692 5692 5693 5695 5696 5697 5698 5699 5700 5701 5702 5703 5704 5705 5705 5706 5706 5706 5707 5707 5707 5707 5707 5707 5707 5707 5707 5707 5707 5707 5708 5708 5708 5707 5707 5706 5706 5706 5706 5705
5680 5681 5681 5682 5683 5684 5685 5686 5687 5688 5689 5690 5691 5692 5693 5694 5695 5695 5695 5696 5696 5696 5696 5696 5696 5696 5696 5696 5696 5696 5696 5696 5695 5696 5696 5697 5697 5696 5695 5695 5695 5695 5694
5671 5672 5672 5673 5673 5674 5675 5676 5677 5678 5679 5679 5680 5682 5683 5684 5684 5685 5685 5685 5685 5685 5685 5685 5685 5685 5685 5685 5685 5684 5684 5684 5684 5683 5683 5684 5684 5685 5685 5684 5684 5683 5683
5662 5663 5663 5664 5664 5665 5665 5665 5666 5667 5668 5669 5670 5671 5672 5673 5674 5674 5674 5674 5674 5674 5675 5675 5674 5674 5674 5674 5673 5672 5672 5672 5672 5671 5671 5671 5671 5672 5674 5674 5672 5672 5672
5653 5654 5654 5655 5655 5655 5655 5655 5656 5657 5658 5658 5659 5660 5661 5662 5662 5663 5663 5663 5663 5664 5664 5664 5663 5663 5662 5662 5661 5660 5660 5660 5660 5659 5659 5659 5659 5659 5660 5662 5662 5661 5661
5645 5645 5645 5645 5646 5646 5646 5646 5646 5647 5648 5649 5649 5650 5651 5651 5651 5652 5653 5653 5653 5653 5653 5653 5652 5652 5651 5650 5649 5648 5648 5647 5647 5647 5647 5648 5648 5648 5648 5649 5650 5650 5650
5638 5638 5637 5637 5637 5637 5637 5637 5637 5638 5638 5638 5639 5640 5640 5641 5641 5642 5642 5642 5643 5643 5643 5642 5642 5641 5640 5639 5638 5637 5636 5635 5636 5636 5636 5636 5636 5636 5636 5637 5638 5639 5639
5630 5630 5629 5628 5628 5628 5627 5627 5627 5628 5628 5629 5629 5630 5630 5630 5631 5631 5631 5632 5632 5632 5632 5632 5631 5630 5629 5628 5627 5626 5625 5625 5625 5625 5625 5625 5625 5625 5625 5625 5626 5627 5628
5623 5621 5620 5619 5618 5618 5618 5618 5618 5618 5619 5619 5619 5620 5620 5620 5621 5621 5621 5622 5622 5622 5621 5621 5621 5620 5619 5618 5617 5616 5615 5615 5614 5614 5614 5614 5614 5613 5613 5614 5614 5615 5616
5615 5613 5612 5611 5610 5609 5608 5608 5608 5609 5609 5610 5610 5610 5610 5610 5611 5611 5611 5611 5611 5611 5611 5611 5610 5609 5608 5607 5607 5606 5605 5605 5604 5604 5604 5603 5603 5603 5602 5603 5603 5603 5604
5607 5605 5603 5602 5601 5600 5599 5599 5599 5599 5599 5600 5600 5600 5600 5601 5601 5601 5601 5601 5601 5601 5600 5600 5600 5599 5598 5597 5597 5596 5595 5595 5594 5594 5593 5593 5592 5592 5592 5592 5592 5592 5592
5599 5597 5595 5594 5592 5592 5591 5591 5590 5590 5590 5590 5590 5591 5591 5591 5591 5591 5591 5591 5591 5591 5591 5590 5589 5589 5588 5588 5587 5586 5586 5585 5585 5584 5583 5583 5582 5582 5582 5581 5581 5581 5581
5592 5590 5587 5586 5584 5584 5583 5583 5582 5582 5581 5581 5581 5581 5581 5581 5581 5581 5581 5581 5581 5581 5581 5580 5580 5579 5579 5579 5578 5577 5576 5576 5575 5575 5574 5573 5573 5572 5572 5572 5572 5572 5571
5584 5582 5580 5578 5577 5576 5576 5575 5574 5573 5572 5572 5572 5572 5572 5572 5572 5572 5571 5571 5571 5571 5571 5570 5570 5570 5569 5569 5568 5568 5567 5566 5566 5565 5564 5564 5563 5563 5563 5562 5562 5562 5561
5577 5574 5572 5571 5569 5569 5568 5567 5566 5565 5564 5563 5562 5562 5562 5562 5562 5562 5561 5561 5561 5561 5560 5560 5560 5560 5560 5560 5559 5559 5558 5557 5557 5556 5555 5555 5554 5554 5554 5553 5553 5553 5552
5569 5567 5565 5563 5562 5561 5560 5559 5558 5556 5555 5554 5553 5553 5553 5553 5552 5552 5551 5551 5551 5551 5551 5551 5551 5551 5551 5550 5550 5549 5549 5548 5548 5548 5547 5546 5546 5545 5545 5544 5544 5544 5544
5561 5559 5558 5557 5555 5554 5553 5552 5550 5548 5547 5545 5545 5544 5544 5544 5543 5543 5542 5542 5541 5541 5541 5541 5541 5541 5541 5541 5540 5540 5540 5539 5539 5539 5539 5538 5538 5537 5537 5537 5537 5536 5536
5554 5552 5551 5550 5548 5546 5545 5543 5542 5540 5539 5537 5536 5536 5535 5535 5534 5534 5533 5532 5532 5531 5531 5531 5531 5531 5531 5531 5531 5531 5531 5531 5531 5531 5530 5530 5530 5530 5529 5529 5529 5528 5528
5547 5545 5544 5543 5541 5539 5537 5535 5534 5532 5531 5530 5528 5527 5526 5526 5525 5525 5524 5523 5522 5522 5522 5521 5521 5521 5521 5521 5521 5521 5522 5522 5523 5522 5522 5522 5522 5522 5521 5521 5521 5521 5520
5540 5539 5537 5535 5533 5531 5529 5527 5525 5524 5522 5521 5520 5519 5518 5517 5516 5515 5514 5514 5513 5512 5512 5512 5511 5512 5512 5512 5512 5512 5513 5514 5514 5514 5514 5514 5514 5514 5513 5513 5513 5513 5513
5533 5531 5529 5527 5525 5523 5521 5519 5517 5516 5514 5513 5512 5511 5510 5509 5507 5506 5505 5504 5503 5503 5503 5502 5502 5502 5502 5502 5503 5504 5505 5505 5506 5506 5506 5506 5506 5506 5506 5506 5506 5506 5505
5525 5523 5521 5519 5517 5515 5513 5511 5509 5508 5506 5505 5504 5503 5501 5500 5499 5497 5496 5495 5494 5494 5494 5493 5493 5493 5493 5493 5494 5495 5496 5497 5497 5498 5498 5498 5498 5498 5498 5498 5498 5497 5496
5517 5515 5513 5511 5509 5506 5504 5502 5501 5499 5498 5497 5496 5494 5493 5492 5490 5489 5488 5487 5486 5485 5485 5485 5485 5485 5485 5485 5486 5487 5488 5488 5489 5490 5490 5491 5491 5491 5491 5491 5490 5490 5489
5510 5507 5505 5503 5501 5498 5496 5494 5493 5491 5490 5489 5487 5486 5485 5484 5482 5481 5479 5478 5477 5477 5477 5476 5476 5476 5477 5477 5478 5478 5479 5480 5481 5482 5482 5483 5484 5484 5484 5484 5483 5483 5482
5502 5499 5497 5495 5493 5490 5489 5487 5485 5484 5482 5481 5480 5478 5477 5475 5474 5473 5471 5470 5469 5468 5469 5468 5468 5468 5469 5469 5470 5470 5471 5472 5473 5474 5475 5475 5476 5477 5477 5477 5476 5476 5475
5494 5492 5489 5487 5485 5483 5481 5480 5478 5477 5475 5474 5472 5470 5469 5468 5467 5465 5464 5462 5462 5461 5461 5460 5461 5461 5461 5461 5462 5462 5463 5464 5465 5466 5467 5468 5469 5470 5470 5470 5469 5469 5468